This is the latest recevied weather packets stored in our database for station/object YO6SAY-10. If no packets are shown the sender has not sent any weather packets the latest 10 day(s).
| Time | Temp. | Humidity | Pressure | Rain* | Wind** | Luminosity | Snow |
|---|---|---|---|---|---|---|---|
| 1777576457 | 10° C | 54% | 957.3 hPa | - | - | - | - |
| 1777575557 | 10° C | 54% | 957.3 hPa | - | - | - | - |
| 1777574657 | 10.56° C | 54% | 957.2 hPa | - | - | - | - |
| 1777573756 | 10.56° C | 54% | 957 hPa | - | - | - | - |
| 1777572856 | 11.11° C | 53% | 956.9 hPa | - | - | - | - |
| 1777571956 | 11.67° C | 51% | 956.8 hPa | - | - | - | - |
| 1777571056 | 11.67° C | 50% | 956.6 hPa | - | - | - | - |
| 1777570153 | 11.67° C | 49% | 956.4 hPa | - | - | - | - |
| 1777569252 | 12.22° C | 49% | 956.5 hPa | - | - | - | - |
| 1777568352 | 11.67° C | 49% | 956.4 hPa | - | - | - | - |
| 1777567450 | 12.22° C | 50% | 956.4 hPa | - | - | - | - |
| 1777566550 | 11.11° C | 52% | 956.4 hPa | - | - | - | - |
| 1777565650 | 11.11° C | 52% | 956.3 hPa | - | - | - | - |
| 1777564749 | 11.11° C | 52% | 956.3 hPa | - | - | - | - |
| 1777563847 | 11.11° C | 51% | 956.3 hPa | - | - | - | - |
| 1777562946 | 11.11° C | 50% | 956.3 hPa | - | - | - | - |
| 1777562046 | 11.11° C | 50% | 956.3 hPa | - | - | - | - |
| 1777561145 | 11.67° C | 50% | 956.2 hPa | - | - | - | - |
| 1777560245 | 11.11° C | 48% | 956.2 hPa | - | - | - | - |
| 1777559345 | 11.11° C | 48% | 956.3 hPa | - | - | - | - |
| 1777558441 | 11.67° C | 49% | 956.2 hPa | - | - | - | - |
| 1777557540 | 11.67° C | 50% | 956.2 hPa | - | - | - | - |
| 1777556640 | 11.67° C | 51% | 956.3 hPa | - | - | - | - |
| 1777555739 | 10.56° C | 46% | 956.3 hPa | - | - | - | - |
| 1777554839 | 10.56° C | 47% | 956.4 hPa | - | - | - | - |
* Rain since midnight (hover to see other rain measurements)
** Current wind speed in m/s (hover to see current wind gust speed)